Paavo Nurmi Rullaluistelu

2004

Sarjat

Sija Sarja Nro Nimi Seura / Kaupunki Nto_Aika Brt_Aika
1 Fitness 5862 Halliväli Janek Hawaii Express 1:15:46 1:15:48
2 Fitness 6075 Lottanen Esa HTL 1:20:54 1:20:57
3 Fitness 6082 Koppel Tönu A&T Sport 1:21:25 1:21:27
4 Fitness 5887 Korva Enel Albe Team 1:24:18 1:24:20
5 Fitness 5932 Ritson Jaanus Abec 1:24:22 1:24:25
6 Fitness 6073 Justen Hannu Kortela 1:24:27 1:24:30
7 Fitness 5923 Pulli Kalle Merimasku 1:24:27 1:24:31
8 Fitness 6084 Kivilohkare Emanuel Juoksijateekkarit 1:28:00 1:28:02
9 Fitness 5858 Eklund Janne TuUL 1:28:04 1:28:06
10 Fitness 5921 Peiker Harri Abec 1:30:19 1:30:22
11 Fitness 5876 Kalela Timo Kunto-Pirkat 1:30:19 1:30:23
12 Fitness 5856 Barck Juha Rapu 1:30:23 1:30:26
13 Fitness 6078 Allen Markku Kunto-Pirkat 1:30:25 1:30:27
14 Fitness 6072 Onger Heidi Tampereen Sisu 1:31:59 1:32:01
15 Fitness 6083 Malin Kalle Tampereen Sisu 1:32:56 1:33:04
16 Fitness 5875 Kähkönen Jyrki Nesteen Soutajat 1:33:51 1:33:55
17 Fitness 5864 Hautamäki Mikael Helsinki 1:34:33 1:34:35
18 Fitness 6077 Heinonen Kari Tampere 1:34:32 1:34:37
19 Fitness 5884 Koivula Sami Katukiitäjät ry 1:34:45 1:34:47
20 Fitness 5854 Ants Juhani Abec 1:35:00 1:35:03
21 Fitness 5913 Nybäck Niklas Nykarleby 1:35:15 1:35:18
22 Fitness 5954 Torvela Mikko Oulu 1:37:16 1:37:20
23 Fitness 6062 Haapanen Sami HTL 1:40:22 1:40:24
24 Fitness 5918 Palva Kaisa Kuhmoisten Kumu 1:40:47 1:40:51
25 Fitness 5857 Einola Pasi Tapio Turku 1:41:28 1:41:32
26 Fitness 5880 Ketola Hannu TS-Kuntoklubi 1:41:27 1:41:33
27 Fitness 5883 Köckritz Martin ABB 1:43:12 1:43:15
28 Fitness 5866 Heinilä Mika Turku 1:43:23 1:43:27
29 Fitness 5958 Venho Lasse Fennonatura 1:43:20 1:43:28
30 Fitness 6081 Lill Erkki Saku sk 1:43:28 1:43:30
31 Fitness 5931 Ristimäki Mika Turku 1:46:41 1:46:51
32 Fitness 5852 Airola Harri Raisio 1:46:47 1:46:51
33 Fitness 5889 Kotkaslahti-Soisalo Susan LVI-Pepe Oy 1:47:22 1:47:28
34 Fitness 5882 Kivirauma Joel Turku 1:47:42 1:47:49
35 Fitness 5924 Punta Tommi Team Blackmailers 1:47:57 1:48:02
36 Fitness 5920 Pärmäkoski Tommi Riihimäki 1:50:28 1:50:38
37 Fitness 5863 Halttunen Mika Riihimäki 1:51:42 1:51:52
38 Fitness 5961 Virtanen Esko Turku 1:52:33 1:52:40
39 Fitness 5935 Saari Henni Raisio 1:52:39 1:52:48
40 Fitness 6088 Peippo Arto Mynämäki 1:54:12 1:54:17
41 Fitness 5888 Koskinen Mikko Turku 1:54:50 1:54:57
42 Fitness 5872 Immonen Tatu Kauniainen 1:54:57 1:55:13
43 Fitness 5878 Kalmanlehto Ulla Kristiin Kauniainen 1:55:28 1:55:46
44 Fitness 5901 Leppänen Jari Volvo Buss 1:55:29 1:55:46
45 Fitness 5952 Toivonen Juha Volvo Buss 1:55:31 1:55:46
46 Fitness 5853 Antila Marko Jyväskylä 1:56:29 1:56:41
47 Fitness 5946 Sulavuori Pekka Volvo Buss 1:56:44 1:57:00
48 Fitness 5953 Torkkeli Juhani TuUL 1:57:07 1:57:10
49 Fitness 5930 Rinne Tero Rauma 1:57:08 1:57:41
50 Fitness 5873 Jalonen Jani Rauma 1:57:10 1:57:41
51 Fitness 6052 Knuutinen Janne Turku 1:57:40 1:57:59
52 Fitness 5948 Suvanto Jarno Espoo 1:58:11 1:58:23
53 Fitness 5962 Virtomaa Otto Espoo 1:59:59 2:00:18
54 Fitness 5906 Maunula Juha m/s Opera 2:00:24 2:00:40
55 Fitness 5861 Grönberg Sirpa Tampere 2:01:23 2:01:38
56 Fitness 5894 Lahervo Tommi Raisio 2:02:55 2:03:01
57 Fitness 5898 Laitonen Jani Masku 2:04:08 2:04:13
58 Fitness 5860 Forsberg Niina Rusko 2:04:36 2:04:41
59 Fitness 5879 Hietikko Mika LVI-Pepe Oy 2:06:18 2:06:25
60 Fitness 5915 Oja Petri LVI-Pepe Oy 2:06:17 2:06:26
61 Fitness 5943 Sorvari Jarmo Gustavsberg 2:06:36 2:06:45
62 Fitness 5926 Reijonen Jorma TuUL 2:08:02 2:08:05
63 Fitness 5895 Lahtinen Jari Salo 2:10:35 2:10:43
64 Fitness 5959 Viirlas Mikko Webasto-Parabus 2:14:16 2:14:39
65 Fitness 5955 Tuovinen Jyrki Salo 2:15:07 2:15:14
66 Fitness 5938 Salmela Mikko Nypro CMS Oy 2:16:19 2:17:16
67 Fitness 5897 Laine Jaakko Volvo Buss 2:17:45 2:18:01
68 Fitness 5964 Wahrman Mia Helsinki 2:18:38 2:18:56
69 Fitness 5934 Roberts Mikko Kiitolinja 2:18:30 2:19:11
70 Fitness 5928 Riihilä Sari Espoo 2:20:10 2:20:24
71 Fitness 6076 Venho Vesa-Pekka Turku 2:23:02 2:23:11
72 Fitness 5940 Setälä Jukka Webasto-Parabus 2:24:04 2:24:27
73 Fitness 5944 Stenros Riikka Turku 2:25:13 2:25:33
74 Fitness 5947 Suominen Annu Naantali 2:25:13 2:25:33
75 Fitness 5911 Nikula Jonna Helsinki 2:28:22 2:28:32
76 Fitness 5933 Riuttaskorpi Paula Littoinen 2:29:27 2:29:50
77 Fitness 5893 Laatikainen Launo Raisio 2:29:55 2:30:13
78 Fitness 5998 Koivu Jukka Turku Energia I, II, III 2:33:20 2:33:38
79 Fitness 6063 Palimo Ari Helsinki 2:35:51 2:36:05
80 Fitness 5903 Leviäkangas Johanna Vantaa 2:35:52 2:36:06
81 Fitness 5871 Hurri Jussi Kyrö 2:45:13 2:45:47
82 Fitness 5905 Mäkitalo Sanna Helsinki 2:46:15 2:46:37
83 Fitness 6070 Lähdeaho Galina Helsinki 2:50:25 2:50:57
84 Fitness 5917 Paakkunainen Sanni Märynummi 3:00:04 3:00:24
85 Fitness 5916 Paakkunainen Pirkko-Liisa Märynummi 3:00:03 3:00:25
1 Fitness sauva 5996 Klaavu Esa Tavastila 1:21:35 1:21:38
2 Fitness sauva 5984 Huippula Jari-Pekka Hämeenkyrö 1:24:20 1:24:25
3 Fitness sauva 6080 Laitinen Risto Kuninkaanmäen Diesel 1:27:51 1:27:56
4 Fitness sauva 5980 Heinonen Aki Kylve 1:29:37 1:29:41
5 Fitness sauva 6066 Männikkö Jari Karinaisten Kunto 1:30:18 1:30:25
6 Fitness sauva 5922 Pilpola Markku Länsi-Suomen merivartiosto 1:30:44 1:30:49
7 Fitness sauva 6012 Lehtelä Jorma Nesteen Soutajat 1:31:37 1:31:45
8 Fitness sauva 5982 Holmberg Tapani Teijo 1:32:20 1:32:25
9 Fitness sauva 5976 Hämäläinen Harri Rauma 1:35:44 1:35:50
10 Fitness sauva 6085 Wahlroos Ari Vaasa 1:35:53 1:35:56
11 Fitness sauva 6064 Paju Kari Turku 1:35:52 1:36:00
12 Fitness sauva 6087 Fiander Jarmo Karkkila 1:37:42 1:37:55
13 Fitness sauva 6086 Wahlroos Esa Kuusisto 1:38:20 1:38:24
14 Fitness sauva 6074 Toskala Jarmo Iisalmi 1:38:37 1:38:40
15 Fitness sauva 6044 Vauramo Pyry Masku 1:38:18 1:38:44
16 Fitness sauva 5977 Hannula Jarmo Hermann´s Oy 1:39:30 1:39:35
17 Fitness sauva 5967 Aaltonen Esa Raisio 1:39:31 1:39:43
18 Fitness sauva 5910 Niemelä Petri Katukiitäjät ry 1:40:37 1:40:44
19 Fitness sauva 6038 Tuusvuori Timo TuUL 1:40:45 1:40:54
20 Fitness sauva 6055 Karonen Kai Turku 1:41:20 1:41:27
21 Fitness sauva 6032 Suomi Kai Paimio 1:41:53 1:42:06
22 Fitness sauva 5971 Alkio Juha Maskun Tempo 1:41:56 1:42:06
23 Fitness sauva 6040 Vähäsarja Jari Espoo 1:42:31 1:42:42
24 Fitness sauva 5942 Soini Veli-Pekka Länsi-Suomen merivartiosto 1:43:24 1:43:29
25 Fitness sauva 6060 Hyryläinen Janne Helsingin Jyry 1:43:22 1:43:31
26 Fitness sauva 6023 Nurmi Jorma Porin Pyrintö 1:43:43 1:43:48
27 Fitness sauva 5978 Heikkala Hannu Turku 1:44:51 1:45:17
28 Fitness sauva 6033 Suominen Heikki Potku -79 1:46:04 1:46:14
29 Fitness sauva 5902 Leskinen Risto Littoinen 1:46:09 1:46:19
30 Fitness sauva 5927 Repo Juha Turku 1:48:23 1:48:31
31 Fitness sauva 5995 Kjellbäck Antero Turku 1:48:32 1:48:54
32 Fitness sauva 5968 Ääri Juha Säkylä 1:49:27 1:49:39
33 Fitness sauva 5994 Kjeldsen John Turku 1:49:19 1:49:57
34 Fitness sauva 5965 Aalto Petteri St. Laurentius Sporttiklubi 1:50:04 1:50:14
35 Fitness sauva 6028 Pohjola Perttu Jalasjärven Jalas 1:50:01 1:50:25
36 Fitness sauva 5966 Aalto Auli Janakkalan Jana 1:50:31 1:50:43
37 Fitness sauva 5988 Intonen Olli Kiitolinja 1:50:37 1:50:48
38 Fitness sauva 6020 Niskanen Keijo Turku 1:50:47 1:51:13
39 Fitness sauva 6035 Tammelin Antti Sandvik Tamrock 1:51:25 1:51:51
40 Fitness sauva 6022 Nuotio Jurki Aura 1:51:33 1:51:51
41 Fitness sauva 5991 Kaitsalmi Jari Volvo Buss 1:51:38 1:51:54
42 Fitness sauva 6027 Peltola Sinikka Turku 1:52:17 1:52:29
43 Fitness sauva 6045 Veijola Ahti Kustavi 1:52:24 1:52:34
44 Fitness sauva 5870 Helin Jani Team-Benecol 1:52:29 1:52:42
45 Fitness sauva 5983 Hörkkö Mika Päivästö Sport Club 1:52:13 1:53:07
46 Fitness sauva 6016 Leminen Mikko Piikkiö 1:52:30 1:53:11
47 Fitness sauva 5925 Ranta Markus Team-Benecol 1:53:00 1:53:13
48 Fitness sauva 6043 Varjonen Anne Uusikaupunki 1:53:04 1:53:21
49 Fitness sauva 5951 Tammi Maija Uusikaupunki 1:53:17 1:53:32
50 Fitness sauva 6024 Nurminen Tero Turku 1:52:39 1:53:33
51 Fitness sauva 5972 Ekström Pertti Rusko 1:52:55 1:53:33
52 Fitness sauva 6006 Laakso Ari Turku 1:53:44 1:54:04
53 Fitness sauva 6046 Virtaniemi Jouni Paimio 1:54:39 1:55:00
54 Fitness sauva 6015 Leminen Seppo Raisio 1:56:54 1:57:32
55 Fitness sauva 5990 Juottonen Marjo Turku 1:57:30 1:57:45
56 Fitness sauva 6071 Lindroos Timo Turku 1:58:23 1:58:36
57 Fitness sauva 6014 Leminen Ville Piikkiö 1:58:01 1:58:40
58 Fitness sauva 5974 Forsell Jari Kuusisto 1:58:45 1:58:56
59 Fitness sauva 5859 Erkkilä Raimo Turku 1:58:55 1:59:25
60 Fitness sauva 5973 Forsblom Katri Raisio 1:59:53 2:00:28
61 Fitness sauva 6017 Lope Kirsi Naantali 1:59:54 2:00:29
62 Fitness sauva 6089 Rapo Jukka Team Kampela 1:59:54 2:00:31
63 Fitness sauva 5987 Ikonen Esa Lahti 2:00:14 2:00:32
64 Fitness sauva 6057 Helminen Vesa Vanhalinna 2:00:22 2:01:00
65 Fitness sauva 5989 Jaakkola Asko Piikkiön Palloseura 2:00:41 2:01:00
66 Fitness sauva 6030 Sedig Harri Varkaus 2:00:47 2:01:02
67 Fitness sauva 5900 Lehtinen Jari Sandvik Tamrock 2:00:42 2:01:10
68 Fitness sauva 6003 Kuoppala Rauno Trameta 2:02:01 2:02:13
69 Fitness sauva 6048 Warnici Marek Worssan Woima 2:01:26 2:02:23
70 Fitness sauva 6034 Tahvanainen Lauri Lempäälän Kisa 2:02:34 2:02:39
71 Fitness sauva 6041 Vainionpää Ilkka Kankaanpää 2:02:40 2:03:14
72 Fitness sauva 6090 Koskinen Jan Team Kampela 2:03:34 2:04:13
73 Fitness sauva 5855 Aurasuo Rami Naantali 2:04:22 2:04:47
74 Fitness sauva 5929 Riipinen Hannele PN Juoksukoulu 2:06:52 2:07:21
75 Fitness sauva 6059 Halonen Kari Nissinmäen Kunto 2:07:28 2:07:50
76 Fitness sauva 6079 Karhu Helena Kuninkaanmäen Diesel 2:07:26 2:07:58
77 Fitness sauva 6018 Mäkelä Taila Masku 2:07:40 2:08:10
78 Fitness sauva 6005 Laakso Esa Raisio 2:09:00
79 Fitness sauva 5975 Haapanala Heikki Littoinen 2:08:31 2:09:01
80 Fitness sauva 5997 Klooti Markku Paattinen 2:09:04 2:09:31
81 Fitness sauva 5969 Ääri Merja Säkylä 2:09:46 2:10:01
82 Fitness sauva 5981 Helin Teemu Turku 2:09:43 2:10:14
83 Fitness sauva 6004 Kylmälä Jouko Turku 2:09:43 2:10:14
84 Fitness sauva 5992 Kantonen Lasse Farmos Fast 2:10:22 2:10:41
85 Fitness sauva 6031 Siipola Antti Turku 2:11:55 2:12:19
86 Fitness sauva 6039 Vahalahti Matti Marttila 2:11:55 2:12:19
87 Fitness sauva 6007 Laatikainen Kaisa Vantaa 2:12:07 2:12:26
88 Fitness sauva 5949 Sysi-Aho Anne Suomen Posti/ls 2:13:46 2:14:00
89 Fitness sauva 6042 Vainionpää Ursula Kankaanpää 2:14:44 2:15:17
90 Fitness sauva 6049 Ylilammi Leila Kankaanpää 2:14:46 2:15:17
91 Fitness sauva 6056 Saarenpää Jari Aura 2:15:59 2:16:17
92 Fitness sauva 5868 Heiskanen Jarkko Naantali 2:16:51 2:17:16
93 Fitness sauva 6065 Nissi-Mäki Kaisa Kaarina 2:17:37 2:17:48
94 Fitness sauva 5874 Järviö Lippo Helsinki 2:18:38 2:18:55
95 Fitness sauva 5869 Heiskanen Päivi Naantali 2:18:33 2:18:57
96 Fitness sauva 6019 Musta-Junnila Armi Inkeri Euromarket 2:18:35 2:19:09
97 Fitness sauva 5904 Mäkelä Tuomo Veho 2:18:49 2:19:26
98 Fitness sauva 6001 Kouvonen Mauri Turku Energia I, II, III 2:21:17 2:21:32
99 Fitness sauva 6011 Laine Kimmo Naantali 2:21:31 2:22:14
100 Fitness sauva 6025 Palokangas Heikki Turku 2:22:13 2:22:22
101 Fitness sauva 6058 Lauslahti Antti Ymmerstan rien 2:22:09 2:22:31
102 Fitness sauva 6067 Kaskinen Juha West hockey 2:24:38 2:25:07
103 Fitness sauva 6068 Perttuli Tapio West hockey 2:24:51 2:25:19
104 Fitness sauva 5970 Ahonen Veikko Volvo Buss 2:28:07 2:28:52
105 Fitness sauva 5957 Venäläinen Taru Naantali 2:32:10 2:32:56
106 Fitness sauva 5999 Kolistaja Tea Ruovesi 2:34:55 2:35:30
107 Fitness sauva 5886 Kolistaja Juha Ruovesi 2:35:12 2:35:45
108 Fitness sauva 6008 Laatikainen Matti Vantaa 2:42:54 2:43:10
109 Fitness sauva 5985 Hurri Sarita Kyrö 2:45:16 2:45:49